[[{"header":{"parameterUnit":"m.s-1","parameterCategory":1,"la1":30.2991,"la2":30.254,"lo1":-89.0895,"lo2":-89.0444,"dy":0.0017,"dx":0.0017,"nx":28,"ny":28,"refTime":"2025-09-16T21:00:00:Z","depth":0,"parameterNumber":2,"parameterNumberName":"U-component_of_WINDS"},"data":[0,0,0,0,0,0,0,0,0,0,0,0,0,0,0,0,0,0,0,0,0,0,0,0,0,0,0,0,0,0,0,0,0,0,0,0,0,0,0,0,0,0,0,0,0,0,0,0,0,0,0,0,0,0,0,0,0,0,-1.3812,-1.381,0,-1.3697,-1.3695,-1.3694,-1.3664,-1.3665,-1.3665,-1.3666,-1.3546,-1.3543,-1.3539,0,0,0,0,0,0,0,0,0,0,0,0,0,-1.4005,-1.4002,-1.3812,-1.381,-1.3809,-1.3697,-1.3695,-1.3694,-1.3664,-1.3665,-1.3666,-1.3666,-1.3548,-1.3543,-1.3539,0,0,0,0,0,0,0,0,0,0,0,0,0,-1.3909,-1.4001,-1.3812,-1.378,-1.3776,-1.3697,-1.3695,-1.3693,-1.3664,-1.3665,-1.3666,-1.3667,-1.3549,-1.3544,-1.3538,-1.3481,0,0,-1.352,-1.3518,0,0,0,0,0,0,0,0,-1.3914,-1.3902,-1.3787,-1.3782,-1.3778,-1.3696,-1.372,-1.3622,-1.3663,-1.3706,-1.3666,-1.3667,-1.3595,-1.3586,-1.3562,-1.3476,-1.347,-1.352,-1.3516,-1.3514,-1.3512,0,0,0,0,0,0,0,-1.3921,-1.3906,-1.3766,-1.3785,-1.378,-1.3772,-1.3759,-1.3701,-1.3646,-1.3703,-1.37,-1.3687,-1.3593,-1.3567,-1.3559,-1.3469,-1.352,-1.3515,-1.3511,-1.3509,-1.3332,-1.3331,0,0,0,0,0,0,-1.3933,-1.3912,-1.377,-1.3763,-1.385,-1.3768,-1.3754,-1.3721,-1.3647,-1.3636,-1.3686,-1.3686,-1.3577,-1.3565,-1.3554,-1.3484,-1.3514,-1.3508,-1.3505,-1.3333,-1.3332,-1.333,0,0,0,0,0,0,-1.3937,-1.3921,-1.3774,-1.3837,-1.3818,-1.3763,-1.3727,-1.3718,-1.3692,-1.3634,-1.3624,-1.367,-1.3577,-1.3562,-1.35,-1.3479,-1.3506,-1.3501,-1.3335,-1.3333,-1.3331,-1.3342,0,0,0,0,0,0,-1.3943,-1.3922,-1.39,-1.3836,-1.3814,-1.3722,-1.3725,-1.3715,-1.3683,-1.3682,-1.3617,-1.3607,-1.3577,-1.3509,-1.3494,-1.3472,-1.3496,-1.3336,-1.3334,-1.3332,-1.3343,-1.3341,-1.3339,0,0,0,0,0,-1.395,-1.3907,-1.3899,-1.3882,-1.3785,-1.3721,-1.3708,-1.3675,-1.3681,-1.3659,-1.3622,-1.3609,-1.3484,-1.3503,-1.3486,-1.3462,-1.3337,-1.3335,-1.3332,-1.3344,-1.3341,-1.3339,0,0,0,0,0,0,-1.3968,-1.3898,-1.3888,-1.3824,-1.3779,-1.3716,-1.3686,-1.3672,-1.3624,-1.3625,-1.3585,-1.3571,-1.3511,-1.348,-1.3502,-1.3404,-1.3411,-1.3405,-1.3426,-1.3423,-1.342,-1.3429,-1.3491,0,0,0,0,0,-1.3965,-1.3919,-1.386,-1.3808,-1.3786,-1.374,-1.3711,-1.369,-1.3641,-1.3622,-1.358,-1.3533,-1.3484,-1.3451,-1.3402,-1.3339,-1.3325,-1.3314,-1.3312,-1.331,-1.3305,-1.3271,-1.3266,-1.3321,-1.3321,-1.3321,0,0,-1.3957,-1.3913,-1.3886,-1.3811,-1.3773,-1.3727,-1.3724,-1.3674,-1.3639,-1.3614,-1.3553,-1.3521,-1.3466,-1.3403,-1.3374,-1.3376,-1.3287,-1.3307,-1.3306,-1.3301,-1.3267,-1.3262,-1.3258,-1.3319,-1.332,-1.332,0,0,-1.3919,-1.3881,-1.3834,-1.3798,-1.3742,-1.3712,-1.3701,-1.3641,-1.3619,-1.3557,-1.3538,-1.3496,-1.341,-1.3373,-1.3342,-1.3293,-1.328,-1.3278,-1.3266,-1.3233,-1.3228,-1.3224,-1.3207,-1.3201,-1.3273,-1.3273,-1.3273,0,-1.3916,-1.3845,-1.3812,-1.3764,-1.3732,-1.3708,-1.3661,-1.3626,-1.3557,-1.3536,-1.3539,-1.3433,-1.3395,-1.3324,-1.3312,-1.3288,-1.3275,-1.3285,-1.3232,-1.3227,-1.3223,-1.3206,-1.32,-1.3274,-1.3274,-1.3274,-1.3274,0,-1.3845,-1.3796,-1.3765,-1.37,-1.3664,-1.3617,-1.3577,-1.3545,-1.3528,-1.3498,-1.3436,-1.3389,-1.3331,-1.3313,-1.3295,-1.324,-1.3243,-1.324,-1.3246,-1.3218,-1.3202,-1.3195,-1.3274,-1.3274,-1.3274,-1.3274,0,0,-1.3812,-1.3732,-1.3721,-1.3692,-1.363,-1.3591,-1.3544,-1.3488,-1.3461,-1.3415,-1.3374,-1.3304,-1.3302,-1.3267,-1.3245,-1.3216,-1.3181,-1.3216,-1.3214,-1.3212,-1.3119,-1.3122,-1.3115,-1.3173,-1.3171,-1.317,-1.3124,0,-1.3767,-1.368,-1.3651,-1.3579,-1.3534,-1.3513,-1.3471,-1.3429,-1.34,-1.3358,-1.3326,-1.3277,-1.3277,-1.3256,-1.3227,-1.3192,-1.3162,-1.3195,-1.3134,-1.3132,-1.3148,-1.3106,-1.3108,-1.3066,-1.3117,-1.3116,-1.3115,0,-1.3701,-1.3655,-1.358,-1.3525,-1.3505,-1.3468,-1.3416,-1.3376,-1.3328,-1.3309,-1.3272,-1.3252,-1.3202,-1.3213,-1.3143,-1.3166,-1.314,-1.3119,-1.3117,-1.3109,-1.3122,-1.3097,-1.3052,-1.3046,-1.3104,-1.3105,-1.3106,0,-1.3686,-1.3605,-1.355,-1.3526,-1.346,-1.3435,-1.3407,-1.336,-1.3329,-1.3283,-1.3263,-1.3212,-1.3184,-1.3145,-1.3112,-1.3123,-1.3046,-1.3053,-1.3029,-1.303,-1.3013,-1.3014,-1.2963,-1.2997,-1.2997,-1.2997,-1.2997,0,-1.3637,-1.3592,-1.3543,-1.3509,-1.3458,-1.3425,-1.3375,-1.3346,-1.3305,-1.3265,-1.3243,-1.3206,-1.3165,-1.3123,-1.3098,-1.3045,-1.3032,-1.3016,-1.3009,-1.3017,-1.3019,-1.2999,-1.3001,-1.2995,-1.2996,-1.2996,-1.2996,0,-1.3611,-1.3576,-1.3515,-1.3459,-1.3444,-1.3409,-1.3361,-1.3327,-1.3299,-1.3249,-1.3235,-1.319,-1.314,-1.3104,-1.3039,-1.3021,-1.2965,-1.2958,-1.2981,-1.2978,-1.2956,-1.2959,-1.2889,-1.2878,-1.292,-1.2919,-1.2919,0,-1.3582,-1.3547,-1.3488,-1.346,-1.3432,-1.3387,-1.3356,-1.3323,-1.3292,-1.3236,-1.3209,-1.3158,-1.3115,-1.3036,-1.2997,-1.2947,-1.294,-1.2919,-1.2932,-1.2942,-1.294,-1.2942,-1.2939,-1.2917,-1.2916,-1.2916,-1.2916,0,-1.3535,-1.352,-1.3476,-1.3427,-1.3391,-1.335,-1.3309,-1.3288,-1.3247,-1.3213,-1.3162,-1.3129,-1.3064,-1.3013,-1.296,-1.2931,-1.2917,-1.2913,-1.2904,-1.2912,-1.2927,-1.2919,-1.2976,-1.2914,-1.2914,-1.2914,-1.2914,-1.2914,-1.3506,-1.3475,-1.3429,-1.3381,-1.3348,-1.331,-1.3277,-1.3245,-1.3202,-1.3147,-1.313,-1.3077,-1.3032,-1.296,-1.293,-1.2889,-1.289,-1.2878,-1.2875,-1.2872,-1.2873,-1.2934,-1.2879,-1.2879,-1.2879,-1.2879,-1.2879,0,-1.3458,-1.3428,-1.3385,-1.3329,-1.3292,-1.3284,-1.3239,-1.3208,-1.3162,-1.3122,-1.308,-1.3023,-1.2974,-1.2933,-1.2883,-1.2858,-1.285,-1.2846,-1.2847,-1.2841,-1.2874,-1.2887,-1.2853,-1.2853,-1.2853,-1.2853,-1.2853,-1.2853,-1.3429,-1.3375,-1.3356,-1.3286,-1.3256,-1.3205,-1.318,-1.3146,-1.3114,-1.305,-1.301,-1.2984,-1.2944,-1.2891,-1.2846,-1.2835,-1.2818,-1.2815,-1.2803,-1.2835,-1.2838,-1.2841,-1.2852,-1.2812,-1.2812,-1.2773,-1.2772,-1.2772]},{"header":{"parameterUnit":"m.s-1","parameterCategory":1,"la1":30.2991,"la2":30.254,"lo1":-89.0895,"lo2":-89.0444,"dy":0.0017,"dx":0.0017,"nx":28,"ny":28,"refTime":"2025-09-16T21:00:00:Z","depth":0,"parameterNumber":3,"parameterNumberName":"V-component_of_WINDS"},"data":[0,0,0,0,0,0,0,0,0,0,0,0,0,0,0,0,0,0,0,0,0,0,0,0,0,0,0,0,0,0,0,0,0,0,0,0,0,0,0,0,0,0,0,0,0,0,0,0,0,0,0,0,0,0,0,0,0,0,1.5411,1.5411,0,1.5364,1.5363,1.5363,1.5385,1.5386,1.5388,1.5389,1.5336,1.5334,1.5331,0,0,0,0,0,0,0,0,0,0,0,0,0,1.5516,1.5514,1.5411,1.5411,1.541,1.5364,1.5363,1.5363,1.5385,1.5386,1.5388,1.5389,1.5337,1.5334,1.5331,0,0,0,0,0,0,0,0,0,0,0,0,0,1.547,1.5513,1.5411,1.5416,1.5415,1.5364,1.5363,1.5363,1.5385,1.5386,1.5388,1.539,1.5338,1.5334,1.5331,1.5271,0,0,1.5319,1.5317,0,0,0,0,0,0,0,0,1.5472,1.5466,1.5415,1.5415,1.5415,1.5382,1.5381,1.5332,1.5384,1.5396,1.5389,1.5391,1.535,1.5345,1.5332,1.5269,1.5266,1.5319,1.5316,1.5315,1.5314,0,0,0,0,0,0,0,1.5475,1.5468,1.5392,1.5415,1.5414,1.5418,1.5414,1.5372,1.5363,1.5395,1.5397,1.5391,1.535,1.5336,1.5331,1.5266,1.5319,1.5315,1.5313,1.5312,1.5149,1.5147,0,0,0,0,0,0,1.5479,1.547,1.5394,1.5391,1.5449,1.5415,1.541,1.5391,1.5364,1.5362,1.539,1.5392,1.5341,1.5336,1.5329,1.5256,1.5315,1.5311,1.5309,1.5151,1.5148,1.5146,0,0,0,0,0,0,1.5481,1.5472,1.5396,1.5431,1.5422,1.5411,1.539,1.5389,1.5375,1.536,1.5358,1.5377,1.5343,1.5335,1.5285,1.5255,1.531,1.5306,1.5153,1.515,1.5147,1.511,0,0,0,0,0,0,1.5484,1.5473,1.5451,1.543,1.542,1.5353,1.5388,1.5387,1.5369,1.5372,1.5347,1.5345,1.5343,1.5291,1.5282,1.525,1.5303,1.5156,1.5152,1.5148,1.5114,1.5106,1.5099,0,0,0,0,0,1.5488,1.5442,1.545,1.544,1.5392,1.5352,1.5345,1.5346,1.5366,1.5343,1.5334,1.5346,1.526,1.5286,1.5275,1.5243,1.5158,1.5153,1.5149,1.5117,1.5108,1.5099,0,0,0,0,0,0,1.5457,1.5439,1.5448,1.5394,1.5374,1.5356,1.5327,1.5336,1.5309,1.5313,1.5314,1.5308,1.5256,1.5245,1.5273,1.5183,1.5212,1.5205,1.5191,1.5182,1.5175,1.5177,1.53,0,0,0,0,0,1.5444,1.5414,1.54,1.5353,1.5343,1.5337,1.5319,1.5321,1.53,1.5292,1.5278,1.5256,1.5225,1.5203,1.5173,1.5114,1.5107,1.5086,1.5079,1.5073,1.5066,1.5031,1.5021,1.5131,1.5131,1.5131,0,0,1.5417,1.5403,1.5384,1.5347,1.5332,1.5299,1.5329,1.5294,1.5268,1.5286,1.5238,1.5228,1.5203,1.5148,1.5123,1.5137,1.5034,1.5067,1.5062,1.5058,1.5025,1.5015,1.5005,1.5128,1.5129,1.5129,0,0,1.535,1.5338,1.5297,1.5282,1.5259,1.5255,1.5246,1.5226,1.5219,1.5172,1.5184,1.5154,1.51,1.5081,1.5065,1.4991,1.5,1.4981,1.4942,1.4908,1.49,1.4892,1.4863,1.4853,1.4975,1.4975,1.4975,0,1.5318,1.527,1.5274,1.5237,1.522,1.5236,1.5194,1.5178,1.5147,1.5133,1.515,1.5082,1.5067,1.5006,1.4988,1.4975,1.4962,1.4983,1.4901,1.4893,1.4886,1.4858,1.4848,1.4973,1.4973,1.4973,1.4973,0,1.5231,1.5197,1.5167,1.5137,1.5116,1.5077,1.5074,1.5052,1.5057,1.505,1.5001,1.4984,1.495,1.4936,1.494,1.4876,1.4885,1.4902,1.493,1.4873,1.4847,1.4837,1.4969,1.497,1.4971,1.4971,0,0,1.514,1.5114,1.5103,1.5089,1.5066,1.5039,1.5,1.4968,1.4948,1.4927,1.4892,1.4846,1.4861,1.4842,1.4844,1.4815,1.4755,1.4835,1.4834,1.4818,1.468,1.4666,1.4654,1.4762,1.476,1.4759,1.4681,0,1.5069,1.5002,1.5005,1.4941,1.4909,1.4924,1.489,1.4871,1.4864,1.4835,1.4828,1.4794,1.4818,1.4806,1.4778,1.4768,1.4726,1.4774,1.4727,1.4726,1.473,1.464,1.4625,1.4553,1.4671,1.467,1.4669,0,1.4977,1.4953,1.4886,1.4866,1.4853,1.4822,1.4792,1.4765,1.4744,1.4741,1.4721,1.4727,1.4686,1.4718,1.466,1.4692,1.4673,1.4665,1.4663,1.4656,1.4691,1.4628,1.453,1.4518,1.4653,1.4654,1.4655,0,1.4914,1.4865,1.4818,1.4806,1.4783,1.4761,1.475,1.4731,1.4711,1.4685,1.4672,1.4642,1.4624,1.4599,1.4597,1.4621,1.4537,1.457,1.4531,1.4531,1.451,1.4511,1.4404,1.4503,1.4503,1.4504,1.4504,0,1.4833,1.479,1.479,1.476,1.4713,1.4717,1.4669,1.4661,1.4643,1.4611,1.4624,1.4593,1.4593,1.4562,1.456,1.451,1.4503,1.4498,1.4497,1.4495,1.4495,1.448,1.4484,1.4501,1.4501,1.4502,1.4502,0,1.4753,1.4752,1.4701,1.4684,1.4679,1.4644,1.4629,1.46,1.4596,1.4555,1.4546,1.4538,1.4501,1.4497,1.4455,1.4453,1.4393,1.4399,1.44,1.44,1.436,1.4363,1.4238,1.4221,1.4334,1.4333,1.4332,0,1.47,1.4668,1.4648,1.4628,1.4616,1.4584,1.4564,1.4567,1.4546,1.4519,1.4493,1.4458,1.443,1.4371,1.436,1.4327,1.4331,1.4289,1.4326,1.4324,1.4326,1.4327,1.4323,1.4281,1.428,1.4279,1.4278,0,1.4604,1.4605,1.4577,1.4548,1.4524,1.4501,1.448,1.4463,1.4463,1.4438,1.4401,1.438,1.4337,1.4301,1.4269,1.4256,1.4266,1.4268,1.4256,1.4252,1.4252,1.4249,1.4377,1.4269,1.427,1.4271,1.4271,1.4272,1.4534,1.4506,1.4487,1.4455,1.4439,1.4419,1.4391,1.4383,1.4353,1.4319,1.4323,1.4281,1.426,1.4218,1.4203,1.417,1.4183,1.4168,1.4163,1.4159,1.4153,1.4261,1.4165,1.4165,1.4165,1.4165,1.4165,0,1.4437,1.4426,1.4396,1.4366,1.434,1.4355,1.4332,1.4309,1.4273,1.4253,1.4226,1.4183,1.4148,1.4135,1.4101,1.4077,1.408,1.4068,1.4068,1.4064,1.4145,1.4156,1.4065,1.4065,1.4065,1.4065,1.4065,1.4065,1.4383,1.4334,1.4333,1.4277,1.4266,1.4227,1.4212,1.4193,1.4177,1.4129,1.4101,1.4093,1.4075,1.404,1.4009,1.4006,1.3991,1.3976,1.3974,1.4049,1.4059,1.4068,1.4079,1.3973,1.3973,1.3896,1.3895,1.3895]}]]